Precipitable_Water
0.85 0.82 0.81 0.84 0.73 0.66 0.59 0.52 0.49 0.42 0.39 0.38 0.35 0.36 0.37 0.38 0.40 0.38 0.39 0.40 0.40 0.39 0.39 0.37 0.35 0.32 0.31 0.31 0.32 0.31 0.31 0.32 0.32 0.33 0.32 0.32 0.31 0.30 0.29 0.28 0.27 0.26
0.91 0.89 0.87 0.87 0.82 0.70 0.61 0.55 0.52 0.48 0.44 0.43 0.41 0.40 0.41 0.40 0.40 0.40 0.40 0.41 0.41 0.41 0.42 0.41 0.40 0.39 0.38 0.37 0.35 0.34 0.34 0.34 0.35 0.39 0.37 0.37 0.36 0.35 0.34 0.33 0.33 0.35
0.96 0.93 0.86 0.79 0.80 0.71 0.62 0.59 0.57 0.54 0.51 0.49 0.49 0.48 0.47 0.49 0.47 0.47 0.47 0.47 0.46 0.47 0.48 0.48 0.48 0.47 0.45 0.42 0.41 0.40 0.40 0.39 0.38 0.40 0.40 0.40 0.42 0.41 0.42 0.43 0.43 0.43
0.99 0.97 0.93 0.85 0.81 0.75 0.64 0.62 0.60 0.58 0.57 0.54 0.52 0.52 0.53 0.53 0.52 0.51 0.51 0.51 0.51 0.52 0.53 0.53 0.52 0.52 0.51 0.49 0.48 0.48 0.49 0.48 0.47 0.46 0.44 0.44 0.44 0.44 0.45 0.47 0.47 0.46
0.94 0.97 0.95 0.87 0.78 0.83 0.71 0.63 0.63 0.61 0.58 0.57 0.57 0.56 0.56 0.57 0.55 0.54 0.54 0.54 0.54 0.55 0.56 0.56 0.56 0.56 0.56 0.53 0.53 0.51 0.52 0.51 0.53 0.52 0.49 0.48 0.50 0.49 0.48 0.49 0.48 0.48
0.89 0.91 0.90 0.87 0.84 0.86 0.79 0.66 0.64 0.67 0.64 0.61 0.60 0.61 0.59 0.60 0.59 0.57 0.56 0.54 0.55 0.57 0.58 0.58 0.58 0.57 0.57 0.56 0.56 0.57 0.56 0.55 0.55 0.54 0.52 0.51 0.52 0.53 0.53 0.52 0.51 0.50
0.81 0.82 0.86 0.85 0.85 0.82 0.79 0.70 0.66 0.70 0.71 0.68 0.68 0.66 0.65 0.63 0.63 0.61 0.59 0.57 0.56 0.58 0.59 0.59 0.58 0.58 0.59 0.58 0.58 0.58 0.60 0.60 0.60 0.58 0.55 0.54 0.55 0.55 0.55 0.53 0.52 0.52
0.82 0.84 0.87 0.88 0.84 0.83 0.82 0.78 0.69 0.69 0.74 0.77 0.73 0.74 0.74 0.72 0.70 0.70 0.69 0.66 0.62 0.61 0.63 0.64 0.65 0.66 0.67 0.66 0.65 0.65 0.66 0.67 0.67 0.65 0.61 0.59 0.58 0.56 0.57 0.57 0.55 0.53
0.84 0.82 0.84 0.89 0.87 0.84 0.84 0.84 0.81 0.74 0.75 0.78 0.79 0.79 0.81 0.82 0.81 0.79 0.80 0.77 0.74 0.72 0.71 0.72 0.72 0.72 0.72 0.72 0.70 0.69 0.69 0.71 0.71 0.70 0.68 0.66 0.64 0.63 0.63 0.63 0.61 0.61
0.87 0.87 0.86 0.89 0.92 0.91 0.86 0.86 0.85 0.85 0.86 0.85 0.87 0.88 0.87 0.90 0.90 0.88 0.86 0.85 0.82 0.81 0.80 0.79 0.78 0.78 0.78 0.78 0.76 0.75 0.74 0.75 0.77 0.77 0.75 0.73 0.71 0.70 0.70 0.70 0.67 0.66
0.87 0.84 0.76 0.79 0.88 0.91 0.91 0.93 0.93 0.92 0.92 0.92 0.92 0.91 0.91 0.90 0.90 0.92 0.92 0.90 0.86 0.86 0.85 0.84 0.83 0.83 0.82 0.82 0.80 0.80 0.79 0.78 0.78 0.79 0.80 0.79 0.77 0.76 0.75 0.73 0.71 0.69
0.86 0.80 0.76 0.81 0.88 0.90 0.91 0.91 0.93 0.94 0.95 0.95 0.97 0.96 0.96 0.96 0.94 0.96 0.96 0.95 0.93 0.91 0.89 0.87 0.87 0.86 0.84 0.82 0.81 0.80 0.79 0.78 0.78 0.78 0.79 0.81 0.80 0.79 0.77 0.75 0.73 0.72
0.86 0.84 0.83 0.90 0.93 0.92 0.90 0.86 0.86 0.90 0.95 0.99 1.02 1.02 0.99 0.98 0.98 0.99 1.01 1.02 1.02 0.98 0.93 0.90 0.87 0.85 0.83 0.83 0.82 0.80 0.78 0.77 0.77 0.78 0.79 0.80 0.81 0.80 0.78 0.77 0.76 0.75
0.83 0.92 1.01 0.99 0.97 0.96 0.95 0.95 0.94 0.92 0.92 0.96 1.01 1.03 1.02 1.03 1.03 1.01 1.02 1.05 1.06 1.02 0.98 0.94 0.89 0.86 0.85 0.85 0.85 0.84 0.82 0.78 0.77 0.78 0.78 0.79 0.80 0.81 0.79 0.77 0.76 0.75
0.83 0.91 1.00 1.02 1.00 0.96 0.96 0.95 0.95 0.94 0.94 0.98 1.03 1.01 1.02 0.99 1.01 1.04 1.05 1.04 1.00 0.98 0.98 0.95 0.89 0.88 0.89 0.89 0.89 0.89 0.86 0.80 0.77 0.77 0.78 0.78 0.79 0.81 0.81 0.78 0.76 0.74
0.97 0.98 0.99 0.98 0.98 0.98 0.98 0.94 0.93 0.91 0.91 0.90 0.92 0.92 0.90 0.88 0.92 0.97 0.94 0.90 0.89 0.93 0.93 0.89 0.86 0.87 0.87 0.86 0.86 0.84 0.82 0.80 0.78 0.77 0.78 0.78 0.78 0.79 0.81 0.81 0.78 0.76
0.88 0.93 0.94 0.88 0.84 0.81 0.91 0.89 0.87 0.85 0.83 0.82 0.86 0.90 0.91 1.00 1.01 0.96 0.90 0.89 0.89 0.89 0.87 0.85 0.85 0.87 0.86 0.86 0.85 0.86 0.85 0.82 0.79 0.78 0.77 0.77 0.77 0.77 0.77 0.80 0.82 0.81
0.82 0.83 0.83 0.83 0.84 0.85 0.88 0.85 0.82 0.80 0.80 0.86 0.90 0.92 0.92 0.93 0.92 0.92 0.88 0.89 0.89 0.88 0.84 0.81 0.81 0.81 0.78 0.78 0.78 0.79 0.80 0.80 0.80 0.78 0.77 0.76 0.75 0.73 0.73 0.73 0.75 0.77
0.87 0.84 0.83 0.81 0.81 0.83 0.82 0.81 0.80 0.78 0.77 0.78 0.80 0.84 0.87 0.85 0.87 0.87 0.82 0.79 0.78 0.78 0.74 0.72 0.71 0.73 0.73 0.71 0.70 0.69 0.68 0.68 0.69 0.73 0.76 0.78 0.79 0.78 0.77 0.76 0.74 0.72
0.85 0.86 0.82 0.84 0.86 0.84 0.82 0.80 0.77 0.74 0.75 0.77 0.77 0.77 0.80 0.82 0.81 0.79 0.74 0.74 0.76 0.72 0.69 0.68 0.65 0.64 0.62 0.60 0.58 0.56 0.55 0.53 0.52 0.51 0.52 0.55 0.59 0.63 0.66 0.67 0.67 0.67
0.76 0.79 0.80 0.80 0.80 0.79 0.79 0.77 0.76 0.74 0.73 0.72 0.71 0.73 0.75 0.78 0.79 0.73 0.74 0.72 0.69 0.65 0.60 0.57 0.55 0.53 0.51 0.49 0.47 0.45 0.43 0.42 0.43 0.44 0.45 0.47 0.49 0.52 0.54 0.55 0.57 0.59
0.67 0.67 0.69 0.68 0.67 0.67 0.67 0.67 0.66 0.67 0.68 0.70 0.70 0.69 0.70 0.70 0.67 0.65 0.63 0.60 0.58 0.55 0.51 0.47 0.47 0.47 0.46 0.45 0.45 0.45 0.44 0.43 0.43 0.43 0.42 0.42 0.43 0.46 0.49 0.52 0.54 0.55
0.59 0.58 0.58 0.58 0.59 0.59 0.60 0.60 0.59 0.59 0.59 0.59 0.56 0.57 0.58 0.57 0.56 0.55 0.55 0.52 0.49 0.45 0.44 0.44 0.45 0.47 0.48 0.48 0.47 0.47 0.46 0.45 0.44 0.44 0.44 0.44 0.44 0.45 0.47 0.49 0.53 0.55
0.61 0.60 0.59 0.59 0.58 0.57 0.57 0.57 0.57 0.56 0.55 0.54 0.51 0.51 0.51 0.51 0.52 0.51 0.50 0.48 0.47 0.47 0.48 0.47 0.48 0.50 0.51 0.51 0.50 0.49 0.48 0.46 0.45 0.44 0.42 0.42 0.43 0.44 0.45 0.47 0.49 0.51
0.57 0.59 0.59 0.57 0.56 0.55 0.55 0.54 0.53 0.52 0.50 0.48 0.46 0.45 0.44 0.44 0.45 0.45 0.48 0.51 0.52 0.52 0.53 0.52 0.52 0.53 0.53 0.52 0.52 0.51 0.50 0.49 0.48 0.46 0.44 0.44 0.43 0.43 0.45 0.46 0.47 0.49
0.56 0.57 0.56 0.55 0.55 0.55 0.55 0.55 0.53 0.49 0.45 0.41 0.40 0.40 0.42 0.44 0.46 0.47 0.47 0.49 0.53 0.54 0.55 0.56 0.55 0.55 0.55 0.54 0.53 0.53 0.52 0.50 0.49 0.46 0.45 0.45 0.45 0.43 0.43 0.44 0.45 0.45
Wind_Speed
15 12 11 10 9 8 7 6 4 3 3 3 3 3 3 3 3 3 3 3 3 3 3 3 3 3 3 3 3 3 3 2 2 2 2 2 2 2 2 2 2 2
17 15 12 12 11 9 8 7 6 5 4 3 3 3 3 3 3 4 4 4 4 4 4 4 3 3 3 3 3 3 2 2 2 1 1 1 1 1 1 1 1 1
18 17 14 13 12 11 10 9 8 7 6 5 5 5 5 4 4 4 4 4 4 4 4 4 3 3 3 3 2 2 2 2 2 1 1 1 1 1 1 1 1 1
18 18 17 15 14 13 11 11 10 9 8 7 7 6 6 6 5 5 5 4 4 3 3 3 3 3 3 3 2 2 2 2 2 2 2 2 2 2 2 2 2 2
17 19 18 17 17 15 13 12 11 10 10 9 8 8 8 7 7 6 6 5 5 4 4 4 3 3 3 3 3 3 3 3 3 4 3 3 3 3 3 4 4 4
16 16 17 18 18 16 15 14 13 12 12 11 10 10 10 9 9 8 8 7 7 6 6 6 5 5 4 4 4 5 5 5 5 5 5 6 6 6 5 5 5 5
16 16 17 18 18 17 17 15 14 14 14 13 12 12 11 11 10 10 9 9 9 8 8 8 7 7 7 7 6 6 6 7 7 7 7 8 8 8 8 7 7 7
18 17 18 19 19 19 19 18 16 16 16 15 15 14 13 12 12 11 10 10 10 9 9 9 9 9 9 8 8 8 8 8 8 8 9 9 9 9 9 9 9 9
19 19 19 19 19 20 20 19 18 17 17 17 17 16 15 14 13 12 12 11 11 10 10 10 10 10 10 10 9 10 10 10 10 10 10 11 11 11 11 11 11 11
19 19 19 20 20 20 21 20 19 19 19 19 19 18 17 16 15 15 14 13 12 12 12 12 12 12 12 11 11 11 12 12 12 13 13 13 13 13 13 13 13 13
19 19 19 20 21 21 21 21 21 20 20 20 20 20 20 18 17 17 17 15 15 15 14 14 14 14 14 14 13 13 14 14 14 15 15 16 16 16 15 15 15 15
20 20 19 20 21 21 20 20 21 21 20 21 22 22 21 20 19 19 19 18 17 17 16 16 16 16 16 16 16 15 16 16 17 17 17 17 17 17 17 17 17 17
20 20 19 19 19 19 19 19 20 22 22 22 23 23 23 22 21 20 20 20 19 18 18 17 17 17 17 17 18 18 18 19 19 19 19 19 18 18 18 18 18 18
19 19 18 18 18 17 17 18 18 20 21 21 22 23 24 24 23 21 21 21 20 19 19 19 19 19 19 19 19 19 19 20 20 20 20 20 20 20 20 20 20 20
17 18 19 18 17 17 17 18 18 18 20 21 22 22 22 24 24 22 21 21 20 18 18 18 18 20 20 20 20 20 21 21 20 20 21 21 22 23 23 23 22 22
17 18 20 19 18 18 18 18 19 19 20 21 22 22 21 22 22 21 21 21 21 20 19 18 19 19 20 21 21 21 21 21 20 21 22 22 23 24 25 26 26 26
19 20 21 21 21 21 21 20 20 20 20 20 21 22 21 21 21 22 22 22 21 21 20 20 20 20 21 21 21 21 21 21 22 23 23 24 24 25 26 27 28 28
20 21 23 23 22 22 22 21 21 22 21 21 22 21 22 22 22 23 23 23 23 22 22 21 21 21 21 21 22 22 23 23 24 25 25 26 26 27 27 27 28 29
21 22 23 23 23 23 22 21 22 22 22 22 23 23 23 23 23 23 23 23 23 23 22 21 21 21 22 22 23 24 25 26 27 27 28 28 29 29 29 29 29 30
24 23 23 23 22 22 22 22 22 23 23 23 23 24 24 24 24 23 23 22 22 22 22 22 23 24 25 25 26 26 27 27 28 28 29 30 30 30 30 30 30 30
25 24 24 23 22 22 21 22 22 22 22 22 22 22 23 23 23 23 23 22 22 23 23 24 25 26 26 26 26 26 27 27 27 28 28 28 29 29 29 29 29 29
23 23 22 22 22 21 21 21 21 21 21 21 20 20 21 21 21 22 22 23 24 24 24 25 25 26 26 26 26 26 26 26 26 27 27 28 28 28 28 28 28 29
23 23 22 22 22 22 22 22 21 21 21 21 21 21 21 22 22 23 24 24 25 25 25 25 26 26 26 26 26 26 26 26 26 26 27 27 27 28 28 28 28 28
25 25 24 24 24 23 24 24 23 23 23 23 23 23 23 23 24 24 24 25 25 25 26 26 26 27 27 27 27 27 27 27 27 27 27 27 27 27 28 28 28 28
27 27 27 26 26 26 25 25 25 25 25 25 24 24 24 24 24 24 24 25 25 25 26 26 26 27 27 27 27 27 28 28 28 28 28 28 28 28 28 28 28 28
27 28 29 28 28 27 27 26 26 26 26 26 25 25 25 25 25 25 25 25 26 26 26 27 27 28 28 29 29 29 29 29 29 29 28 28 28 28 28 29 29 29
Wind_Direction
233 238 241 235 236 246 251 248 245 241 230 215 199 186 181 186 188 184 177 168 164 163 162 162 161 157 152 146 141 139 141 142 148 160 167 175 192 203 210 221 233 242
231 237 242 235 232 239 243 237 231 228 223 213 204 195 187 186 184 178 170 162 159 157 156 156 156 155 154 151 148 145 141 138 139 146 144 147 168 178 181 192 209 241
235 237 241 234 228 230 232 230 228 229 228 222 216 208 199 194 190 184 177 171 169 169 170 171 171 169 169 168 169 168 164 161 162 169 172 175 197 218 226 234 247 267
240 237 238 235 229 227 227 228 229 230 229 224 220 216 211 206 202 199 196 193 191 190 189 192 196 197 196 197 203 210 212 213 218 225 228 226 235 246 250 258 265 270
240 236 236 234 230 227 226 229 231 231 230 227 223 221 219 218 216 214 212 212 212 213 213 214 219 227 235 240 245 248 250 254 257 260 261 256 256 258 260 263 266 267
234 234 235 231 230 229 227 230 233 234 234 232 228 226 226 227 228 228 228 228 228 229 230 230 231 238 248 255 261 265 267 267 267 269 270 269 268 268 267 267 267 267
230 236 236 232 233 233 230 231 235 237 237 237 235 233 232 232 234 236 237 238 238 239 241 241 242 245 249 254 258 264 270 271 270 270 270 269 268 268 268 268 267 266
237 243 240 237 238 236 233 233 237 239 239 238 238 237 237 237 237 237 239 241 242 243 243 243 245 247 249 253 257 262 267 269 268 268 269 269 268 267 267 267 267 266
241 244 242 240 239 236 233 234 237 239 238 238 237 237 238 239 238 239 240 240 241 243 244 244 247 249 250 254 260 265 268 267 267 267 269 270 269 269 268 268 268 268
240 242 241 239 238 236 234 233 235 236 237 237 236 236 237 237 239 239 238 238 240 244 247 249 252 254 256 260 265 268 268 268 269 271 271 270 270 270 270 269 269 269
244 244 242 239 237 237 237 235 236 237 238 238 237 237 237 238 238 238 237 239 243 246 249 251 254 257 260 264 267 269 270 269 270 272 272 270 270 270 269 268 269 269
247 247 245 240 236 236 237 238 239 239 239 239 238 238 238 238 239 240 240 242 245 248 251 254 257 260 263 265 267 269 271 272 271 272 271 269 269 268 267 267 268 269
249 247 243 236 232 234 238 242 244 243 242 243 241 239 238 238 239 243 243 243 247 250 253 256 260 263 265 267 268 269 272 274 272 270 269 267 266 266 266 267 268 269
248 244 238 233 232 237 241 245 248 245 243 244 242 241 241 239 240 246 245 244 249 253 255 259 261 263 266 269 270 271 273 274 272 270 269 267 265 265 266 267 268 269
246 241 237 235 236 240 243 247 250 247 246 246 244 244 244 240 241 246 243 242 249 255 257 261 262 264 267 270 271 273 274 275 274 272 271 270 268 266 265 265 266 268
246 240 236 237 241 245 249 252 251 250 249 247 244 244 244 241 242 244 242 243 251 255 257 261 263 265 268 270 272 274 274 274 275 275 274 273 272 269 267 265 265 266
248 243 241 246 250 251 253 254 252 252 251 248 244 244 243 243 244 245 245 248 252 255 259 263 265 267 269 271 273 274 274 275 275 275 275 274 274 272 270 268 267 267
248 245 246 249 251 251 253 253 252 253 252 248 245 244 244 245 247 247 248 251 253 257 262 265 267 269 271 272 273 273 274 276 276 276 276 275 274 273 272 271 269 268
250 249 248 249 250 251 252 251 251 252 251 249 248 247 247 247 248 248 250 253 255 258 263 265 267 269 271 273 274 275 277 277 277 277 276 276 275 274 274 273 272 271
252 250 249 249 250 251 251 250 251 251 250 250 250 250 249 247 246 248 251 254 256 258 262 265 268 271 273 275 277 278 279 279 278 278 278 277 277 276 275 274 273 272
251 249 248 249 249 250 250 250 251 251 249 249 249 249 247 247 247 250 252 254 257 260 264 268 271 274 275 277 278 280 280 280 280 280 280 280 279 278 277 276 274 273
251 248 246 246 246 248 249 249 250 250 249 249 249 248 247 248 249 252 255 258 261 264 267 271 274 276 277 278 280 281 281 281 281 281 281 281 281 280 279 277 276 274
250 248 246 246 247 248 249 249 249 249 248 249 250 251 251 252 254 257 259 262 264 266 269 272 275 277 278 279 280 281 281 282 281 281 282 282 281 281 280 279 277 275
250 249 248 248 249 249 249 249 249 249 250 251 252 253 254 255 257 260 263 265 267 269 271 273 276 278 279 280 280 281 282 282 281 281 282 282 281 281 280 279 278 277
251 250 250 250 250 250 251 251 250 251 252 253 254 254 256 257 260 262 265 268 270 271 272 275 277 279 280 280 281 281 281 281 281 281 282 282 281 280 279 279 278 277
253 251 250 250 250 251 251 251 252 252 253 254 255 255 257 259 261 264 267 269 270 271 273 275 277 279 280 280 280 281 281 281 281 281 281 281 280 279 279 278 278 277